Regional Weather Roundup
Issued by NWS

Home | Current Version | Previous Version | Text Only | Print | Product List | Glossary On
Versions: 1 2 3 4 5 6 7 8 9 10 11 12 13 14 15 16 17 18 19 20 21 22 23 24 25 26 27 28 29 30 31 32 33 34 35 36 37 38 39 40 41 42 43 44 45 46 47 48 49 50
000
ASHW40 PHFO 271743
RWRHI

WEATHER ROUNDUP FOR HAWAII
NATIONAL WEATHER SERVICE HONOLULU HI
700 AM HST TUE JUN 27 2017

THIS IS AN AUTOMATED REPORT THAT HAS NOT BEEN QUALITY CONTROLLED.

NOTE..."FAIR" INDICATES FEW OR NO CLOUDS BELOW 12,000 FEET WITH NO
SIGNIFICANT WEATHER AND/OR OBSTRUCTIONS TO VISIBILITY.

* - THESE SITES REPORT LIMITED FIELDS

HIZ001>004-271800-
KAUAI-NIIHAU-

CITY           SKY/WX    TMP DP  RH WIND       PRES   REMARKS
LIHUE APT      SUNNY     79  69  71 E14       30.12R
PORT ALLEN*    NOT AVBL
POIPU*         NOT AVBL
PRINCEVILLE*   NOT AVBL
KOKOLE POINT*  NOT AVBL
MOLOAA DAIRY*    N/A     73  68  83 E5          N/A
WAIMEA HTS*      N/A     81  64  57 N3          N/A
PUU OPAE*      NOT AVBL
PUU LUA*       NOT AVBL
MAKAHA RIDGE*    N/A     70  66  88 CALM        N/A
$$

HIZ005>011-271800-
OAHU-

CITY           SKY/WX    TMP DP  RH WIND       PRES   REMARKS
HONOLULU       MOSUNNY   78  66  66 NE5       30.08R
KALAELOA       MOSUNNY   75  67  76 CALM      30.10R
KANEOHE MCB    PTSUNNY   80  71  74 E12G20    30.08R
WHEELER FIELD  CLOUDY    73  66  78 CALM      30.10R
BELLOWS*       NOT AVBL
KAHUKU*        NOT AVBL
WHEELER*       NOT AVBL
WAIANAE HARBOR NOT AVBL
DILLINGHAM*      N/A     91  82  75 W2          N/A  HX 114
KAHUKU TRN*      N/A     73  66  78 W7G17       N/A
KAWAILOA*        N/A     72  66  83 E3G12       N/A
KII*             N/A     79  70  73 E15         N/A
MAKUA RANGE*     N/A     73  63  68 W5G12       N/A
OAHU FOREST NW   N/A     72  64  78 E16G33      N/A
SCHOFIELD BRK* NOT AVBL
SCHOFIELD S*   NOT AVBL
WAIANAE VLY*     N/A     91  81  70 E3G12       N/A  HX 110
KUAOKALA*        N/A     75  68  78 NE7G13      N/A
HONOULIUULI*   NOT AVBL
MOKUOLOE IS*   NOT AVBL
PALEHUA*         N/A     70  63  78 NE10G20     N/A
WAIAWA PHB*    NOT AVBL
$$

HIZ012>013-271800-
MOLOKAI-

CITY           SKY/WX    TMP DP  RH WIND       PRES   REMARKS
MOLOKAI AIRPT  SUNNY     77  68  73 NE15G25   30.10R
KALAUPAPA      NOT AVBL
MAKAPULAPAI*     N/A     81  70  69 E18G25      N/A
MOLOKAI 1*       N/A     63  52  67 W1G9        N/A
PUU ALII*        N/A     60  58  94 NE3G12      N/A
$$

HIZ016-271800-
KAHOOLAWE-

CITY           SKY/WX    TMP DP  RH WIND       PRES   REMARKS
KAHOOLAWE*     NOT AVBL
HAKIOAWA*        N/A     76  69  80 MISG      30.51
HONOKANAIA*      N/A     77  67  72 N10G16      N/A
KANELOA*         N/A     73  64  73 NE7G15    30.13R
KEALIALALO*    NOT AVBL
LUA MAKIKA*    NOT AVBL
$$

HIZ014>015-271800-
LANAI-

CITY           SKY/WX    TMP DP  RH WIND       PRES   REMARKS
LANAI CITY     FAIR      71  66  84 NE10      30.14R
LANAI 1*         N/A     72  64  78 E14G22      N/A
$$

HIZ017>028-271800-
MAUI-

CITY           SKY/WX    TMP DP  RH WIND       PRES   REMARKS
KAHULUI        MOSUNNY   77  68  73 NE15      30.08R
KAPALUA-W MAUI MOSUNNY   75  66  73 NE14      30.10
HANA AIRPORT   MOSUNNY   79  70  73 E7        30.14R
HANA*            N/A     77 N/A N/A E5          N/A
HALEAKALA SUMM   N/A     48  21  34 E25G46      N/A
MAALAEA BAY*   NOT AVBL
HALEAKALA*     NOT AVBL
KAUPO GAP*     NOT AVBL
KULA 1*          N/A    N/A N/A N/A E3          N/A
$$

HIZ023>026-271800-
BIG ISLAND OF HAWAII COAST AND LOWER SLOPES-

CITY           SKY/WX    TMP DP  RH WIND       PRES   REMARKS
KAILUA KONA    MOSUNNY   83  67  58 CALM      30.03R
HILO           CLOUDY    76  67  73 NW5       30.09R
HONOKAA*         N/A     72 N/A N/A VRB1        N/A
KAWAIHAE MWT*    N/A     81 N/A N/A N3G9        N/A
KAWAIHAE*        N/A     81 N/A N/A N6        30.04R
SOUTH POINT*     N/A     72 N/A N/A N16G23      N/A
UPOLU AIRPORT* NOT AVBL
KAMUELA*         N/A     68  63  83 NE20      30.17R
HAKALAU*         N/A    N/A N/A N/A SW3G12      N/A
KALOKO-HONOKO*   N/A     81  66  61 E3        30.03R
PALI 2*          N/A     70  59  68 S16G22      N/A
KEALAKOMO*       N/A     81  64  57 NE12G18     N/A
KAUPULEHU*       N/A     79  63  57 NE3G10      N/A
KAPAPALA*        N/A     61  59  94 N3          N/A
LOWER KAHUKU*    N/A     61  57  88 N3G12       N/A
PUHE CS*         N/A    N/A N/A N/A E7G18       N/A
PUHO CS*         N/A     78  65  63 NE2         N/A
PTA KEAMUKU*   NOT AVBL
WAIKOLOA*        N/A     79  59  50 E10G17      N/A
$$

HIZ027>028-271800-
BIG ISLAND OF HAWAII INTERIOR AND SUMMMITS-

CITY           SKY/WX    TMP DP  RH WIND       PRES   REMARKS
BRADSHAW FIELD SUNNY     67  22  18 SE3       30.38R VSB 3/4
MK VISITOR CEN   N/A     54  19  26 SE17        N/A
MAUNA KEA*       N/A     41  -9  11 NE13        N/A
MAUNA LOA*       N/A     52 -13   6 MISG        N/A
MAUNA LOA 1*   NOT AVBL
PTA KIPUKA*      N/A     73  52  46 S2G8        N/A
PTA RANGE 17*    N/A     81  32  17 E6G17       N/A
PTA WEST*        N/A     54  50  87 SE5G12      N/A
NENE CABIN*      N/A    N/A N/A N/A NE8G15      N/A
AHUMOA*          N/A     67  34  29 SW1G7       N/A
PTA PORTABLE*  NOT AVBL
PUU MALI*        N/A     66 N/A N/A E18G25      N/A
$$

HIC003-271800-
NORTHWEST ISLANDS-

CITY           SKY/WX    TMP DP  RH WIND       PRES   REMARKS
MIDWAY ISLAND  MOCLDY    73  66  78 E7        30.15R
MIDWAY NOS*      N/A     75 N/A N/A MISG      30.14R
FRENCH FRIGATE NOT AVBL
$$

PHZ110>124-180-271800-
BUOY REPORTS

STATION/POSITION TIME  TEMP    WIND        PRES    WAVE   SWELL
                       AIR SEA DIR/SP/G            HT/PER HT/DIR
                 (UTC) (F)     (DEG/KT/KT) (MB)    (FT/S) (FT/D)
BUOY 51001       1720   79 81  120/ 16/ 17 1019.5
BUOY 51101       1650   79 80  120/ 14/ 17 1019.9R   6/11   3/ 80
BUOY 51100       NOT AVBL
BUOY 51002       1720   78 80   70/ 16/ 19 1016.3
BUOY 51003       1650   80 80   50/ 14/ 16 1017.1R   6/ 8   5/100
BUOY 51004       1650      78   70/ 17/ 21 1016.8R   8/11   5/ 60
BARBERS PT BUOY  NOT AVBL
WAIMEA BAY BUOY  1702      78                N/A     4/11   2/ 30
KAILUA BAY BUOY  1704      80                N/A     7/11   3/ 70
LANAI BUOY       NOT AVBL
BARBERS PT 2     NOT AVBL
PAUWELA MAUI     1709      79                N/A     6/11   3/ 40
HILO             1727      79                N/A     6/11   3/ 50
KANEOHE BAY BUOY 1725      79                N/A     6/11   3/ 50
HANALEI KAUAI    1722      80                N/A     5/12   2/ 60
KAHULUI HARBOR   1712   78 80   30/ 13/ 15 1019.0
HONOLULU HARBOR  1712   79 80   80/  2/  4 1019.7
KILO NALU        NOT AVBL
HILO HARBOR      1712   76 79  250/  2/  5 1019.0
MOKUOLOE         1636   79 82   80/  8/ 12 1019.1R
NAWILIWILI       1712   78 82   60/  9/ 13 1019.5
WHOTS BUOY       NOT AVBL
BUOY 51028       NOT AVBL
$$

......................KEY........................................
  SKY/WX - SKY CONDITIONS/PRESENT WEATHER
  TMP    - TEMPERATURE IN FAHRENHEIT
  DWPT   - DEWPOINT IN FAHRENHEIT
  RH     - RELATIVE HUMIDITY IN PERCENT
  WIND   - DIRECTION AND SPEED /MPH FOR ISLANDS...KTS FOR BUOYS/
  PRES   - MEAN SEA LEVEL PRESSURE IN INCHES OF HG
  VSB    - VISIBILITY IN MILES
  HX     - HEAT INDEX
  WCI    - WIND CHILL INDEX
  VRB    - VARIABLE WIND DIRECTION
  N/A    - NOT AVAILABLE



USA.gov is the U.S. government's official web portal to all federal, state and local government web resources and services.